Weather History for Pompano Beach, FL

Change the Weather History Date:

Friday, March 9, 2012

  Actual Average Record
Temperature  
Mean Temperature 76 °F -  
Max Temperature 80 °F 78 °F 87 °F (1958)
Min Temperature 73 °F 62 °F 39 °F (1971)
Cooling Degree Days 12    
Growing Degree Days 26 (Base 50)    
Moisture  
Dew Point 69 °F    
Average Humidity 81    
Maximum Humidity 94    
Minimum Humidity 69    
Precipitation  
Precipitation 0.01 in - - ()
Sea Level Pressure  
Sea Level Pressure 30.16 in    
Wind  
Wind Speed 13 mph (ESE)    
Max Wind Speed 17 mph    
Max Gust Speed 22 mph    
Visibility 10 miles    
Events      
Averages and records for this station are not official NWS values.
T = Trace of Precipitation, MM = Missing Value Source: NWS Daily Summary

Daily Weather History Graph

Daily Weather History Graph

Search for Another Location

Airport:

Trip Planner

Search our weather history database for the weather conditions in past years. The results will help you decide how hot, cold, wet, or windy it might be!

Date:

Astronomy

Mar. 09, 2012 Rise Set
Actual Time 6:35 AM EST 6:26 PM EST
Civil Twilight 6:12 AM EST 6:49 PM EST
Nautical Twilight 5:45 AM EST 7:16 PM EST
Astronomical Twilight 5:18 AM EST 7:43 PM EST
Moon 8:06 PM EST (3/9) 7:07 AM EST (3/9)
Length of Visible Light 12h 37m
Length of Day
11h 50m
Full, 98% of the Moon is Illuminated
Mar 9
Full
Mar 14
Last Quarter
Mar 22
New
Mar 30
First Quarter
Apr 6
Full

Hourly Weather History & Observations

Time (EST) Temp. Heat Index Dew Point Humidity Pressure Visibility Wind Dir Wind Speed Gust Speed Precip Events Conditions
12:19 AM 73.4 °F - 69.8 °F 88% 30.18 in 10.0 mi ESE 15.0 mph 20.7 mph N/A   Mostly Cloudy
12:48 AM 73.4 °F - 68.0 °F 83% 30.17 in 10.0 mi ESE 16.1 mph 21.9 mph N/A   Overcast
12:53 AM 73.9 °F - 68.0 °F 82% 30.17 in 10.0 mi ESE 12.7 mph - N/A   Overcast
1:46 AM 73.4 °F - 68.0 °F 83% 30.15 in 10.0 mi ESE 12.7 mph 19.6 mph N/A   Overcast
1:53 AM 73.9 °F - 66.9 °F 79% 30.15 in 10.0 mi ESE 15.0 mph 21.9 mph N/A   Overcast
2:04 AM 73.4 °F - 68.0 °F 83% 30.14 in 10.0 mi ESE 15.0 mph 20.7 mph N/A   Mostly Cloudy
2:53 AM 73.9 °F - 68.0 °F 82% 30.13 in 10.0 mi ESE 13.8 mph - N/A   Overcast
3:53 AM 73.0 °F - 68.0 °F 84% 30.12 in 10.0 mi ESE 12.7 mph - N/A   Mostly Cloudy
4:53 AM 73.9 °F - 68.0 °F 82% 30.13 in 10.0 mi ESE 8.1 mph - N/A   Overcast
5:53 AM 73.9 °F - 68.0 °F 82% 30.15 in 10.0 mi ESE 11.5 mph - N/A   Overcast
6:53 AM 73.9 °F - 69.1 °F 85% 30.17 in 10.0 mi ESE 9.2 mph - N/A   Mostly Cloudy
7:53 AM 75.0 °F - 68.0 °F 79% 30.18 in 10.0 mi ESE 13.8 mph - N/A   Partly Cloudy
8:53 AM 77.0 °F - 69.1 °F 76% 30.20 in 10.0 mi ESE 13.8 mph - N/A   Scattered Clouds
9:53 AM 78.1 °F - 69.1 °F 74% 30.21 in 10.0 mi ESE 15.0 mph - N/A   Scattered Clouds
10:53 AM 79.0 °F - 69.1 °F 72% 30.22 in 10.0 mi ESE 17.3 mph 21.9 mph N/A   Overcast
11:53 AM 78.1 °F - 70.0 °F 76% 30.20 in 10.0 mi ESE 16.1 mph - 0.01 in   Scattered Clouds
12:53 PM 80.1 °F 82.9 °F 69.1 °F 69% 30.18 in 10.0 mi ESE 13.8 mph - N/A   Scattered Clouds
1:53 PM 80.1 °F 82.9 °F 69.1 °F 69% 30.15 in 10.0 mi SE 13.8 mph - N/A   Scattered Clouds
2:53 PM 80.1 °F 82.9 °F 69.1 °F 69% 30.13 in 10.0 mi ESE 13.8 mph 21.9 mph N/A   Scattered Clouds
3:53 PM 80.1 °F 82.9 °F 69.1 °F 69% 30.12 in 10.0 mi SE 12.7 mph - N/A   Scattered Clouds
4:53 PM 78.1 °F - 69.1 °F 74% 30.12 in 10.0 mi SE 13.8 mph - N/A   Partly Cloudy
5:53 PM 75.9 °F - 70.0 °F 82% 30.13 in 10.0 mi SE 9.2 mph - N/A   Partly Cloudy
6:53 PM 75.0 °F - 70.0 °F 84% 30.12 in 10.0 mi SE 8.1 mph - N/A   Clear
7:53 PM 75.0 °F - 71.1 °F 87% 30.14 in 10.0 mi SE 5.8 mph - N/A   Clear
8:53 PM 75.0 °F - 72.0 °F 90% 30.15 in 10.0 mi ESE 8.1 mph - N/A   Partly Cloudy
9:53 PM 75.0 °F - 71.1 °F 87% 30.17 in 10.0 mi SE 6.9 mph - N/A   Scattered Clouds
10:53 PM 75.0 °F - 71.1 °F 87% 30.18 in 10.0 mi Calm Calm - N/A   Clear
11:48 PM 73.4 °F - 71.6 °F 94% 30.16 in 10.0 mi Calm Calm - N/A   Mostly Cloudy
11:53 PM 73.9 °F - 71.1 °F 91% 30.16 in 10.0 mi WNW 3.5 mph - N/A   Mostly Cloudy